This demonstration page uses our WeatherBlox Daily Observations layout. Learn more.

Left ArrowRight Arrow

30.21309, -93.2044

Hourly Observations for May 27, 2022

Temp ( °F °C ) Dew Point ( °F °C ) Humidity (%) Winds ( mph kmh ) Pressure ( in mb ) Visibility ( mi km ) Precip ( " mm )
12:15 am 00:15 Clear 76 24.7 68 20.1 76 76 WSW 9 15 29.95 1014 10 16 0.00 0.00
12:35 am 00:35 Clear 76 24.6 68 20.2 77 77 WSW 9 15 29.95 1014 10 16 0.00 0.00
12:55 am 00:55 Clear 76 24.5 69 20.5 78 78 WSW 6 9 29.95 1014 10 16 0.00 0.00
1:15 am 01:15 Clear 76 24.3 69 20.8 81 81 WSW 7 11 29.94 1014 10 16 0.00 0.00
1:35 am 01:35 Clear 75 24 69 20.8 82 82 WSW 5 7 29.94 1014 10 16 0.00 0.00
1:55 am 01:55 Clear 75 24 70 20.9 83 83 SW 5 7 29.95 1014 10 16 0.00 0.00
2:15 am 02:15 Clear 75 23.9 70 20.9 83 83 WSW 6 9 29.94 1014 10 16 0.00 0.00
2:35 am 02:35 Clear 74 23.4 69 20.5 84 84 N 12 19 29.96 1015 10 16 0.00 0.00
2:55 am 02:55 Partly Cloudy 72 22.4 67 19.6 84 84 NW 6 9 29.96 1015 10 16 0.00 0.00
3:15 am 03:15 Partly Cloudy 72 22.3 67 19.3 83 83 WNW 6 9 29.97 1015 10 16 0.00 0.00
3:35 am 03:35 Partly Cloudy 72 22.1 66 19.1 83 83 NW 6 9 29.97 1015 10 16 0.00 0.00
3:55 am 03:55 Clear 72 22 66 19 83 83 NW 5 7 29.97 1015 10 16 0.00 0.00
4:15 am 04:15 Clear 72 22.3 66 19.1 82 82 WNW 6 9 29.97 1015 10 16 0.00 0.00
4:35 am 04:35 Clear 72 22.2 66 19.1 83 83 WNW 5 7 29.97 1015 10 16 0.00 0.00
4:55 am 04:55 Clear 72 22.4 67 19.5 84 84 WNW 6 9 29.98 1015 10 16 0.00 0.00
5:15 am 05:15 Clear 73 22.6 67 19.7 84 84 WNW 6 9 29.98 1015 10 16 0.00 0.00
5:35 am 05:35 Clear 73 22.8 68 19.8 83 83 W 3 6 29.98 1015 10 16 0.00 0.00
6:00 am 06:00 Mostly Clear 73 23 66 19 78 78 NW 8 13 29.99 1016 10 16 0.00 0.00
6:45 am 06:45 Mostly Sunny 72 22 68 20 88 88 W 6 9 30.00 1016 10 16 0.00 0.00
7:53 am 07:53 Mostly Sunny 75 24 70 21 83 83 NW 12 19 30.01 1016 10 16 0.00 0.00
8:50 am 08:50 Mostly Sunny 79 26 70 21 74 74 NW 13 20 30.02 1017 10 16 0.00 0.00
9:45 am 09:45 Mostly Sunny 81 27 66 19 62 62 NW 13 20 30.02 1017 10 16 0.00 0.00
10:51 am 10:51 Mostly Sunny 84 29 64 18 51 51 WNW 13 20 30.02 1017 10 16 0.00 0.00
11:45 am 11:45 Mostly Sunny 88 31 61 16 40 40 NW 14 22 30.01 1016 10 16 0.00 0.00
12:45 pm 12:45 Mostly Sunny 90 32 57 14 33 33 NNW 12 19 29.99 1016 10 16 0.00 0.00
1:50 pm 13:50 Mostly Sunny 90 32 57 14 33 33 NW 13 20 29.97 1015 10 16 0.00 0.00
2:45 pm 14:45 Partly Cloudy 90 32 57 14 33 33 NNW 13 20 29.95 1014 10 16 0.00 0.00
3:46 pm 15:46 Partly Cloudy 91 33 57 14 32 32 N 16 26 29.93 1014 10 16 0.00 0.00
4:51 pm 16:51 Partly Cloudy 91 33 55 13 30 30 NNW 20 31 29.91 1013 10 16 0.00 0.00
5:52 pm 17:52 Mostly Sunny 90 32 55 13 31 31 N 14 22 29.90 1012 10 16 0.00 0.00
6:47 pm 18:47 Mostly Sunny 88 31 54 12 31 31 NNW 12 19 29.90 1013 10 16 0.00 0.00
7:55 pm 19:55 Mostly Sunny 82 28 54 12 37 37 N 7 11 29.91 1013 10 16 0.00 0.00
8:53 pm 20:53 Mostly Clear 79 26 55 13 45 45 NNE 6 9 29.92 1013 10 16 0.00 0.00
9:55 pm 21:55 Mostly Clear 75 24 55 13 50 50 NNE 6 9 29.94 1014 10 16 0.00 0.00
10:15 pm 22:15 Clear 75 23.9 54 12.1 48 48 NNE 9 15 29.94 1014 10 16 0.00 0.00
10:35 pm 22:35 Clear 74 23.6 53 11.6 47 47 N 7 11 29.94 1014 10 16 0.00 0.00
10:55 pm 22:55 Clear 74 23.2 53 11.5 48 48 N 7 11 29.95 1014 10 16 0.00 0.00
11:15 pm 23:15 Clear 73 22.6 53 11.4 49 49 NE 6 9 29.95 1014 10 16 0.00 0.00
11:35 pm 23:35 Clear 73 22.5 53 11.5 50 50 NNE 6 9 29.95 1014 10 16 0.00 0.00
11:55 pm 23:55 Clear 72 22.3 53 11.8 52 52 NE 8 13 29.95 1014 10 16 0.00 0.00

Powered by AerisWeather